Date String (YYYY-MM-DD hh:mm:ss) UTC,Instrument flags,absolute air pressure of the measurement (hPa),sample flow rate (lpm),inlet stack bypass flow (lpm),air temperature of the measurement (°C),ambient temperature measured by the external sensor (°C),aerosol sample conditioner tube jacket temperature (°C),OPC LED temperature (°C),internal box temperature (°C),relative humidity of the measurement (%),span deviation,mass concentration of particles derived from Lorenz-Mie calculation of OPC scattering (μg/m³),mass concentration of particles derived from Lorenz-Mie calculation of OPC scattering (μg/m³),mass concentration of particles derived from Lorenz-Mie calculation of OPC scattering (μg/m³)
DateTimeUTC,F1_M11,P_M11,Q1_M11,Q2_M11,T1_M11,T2_M11,T3_M11,T4_M11,T5_M11,U1_M11,ZSPAN_M11,X2_M11,X0_M11,X1_M11
2024-04-04 12:00:00,SystemResetWarning,0826.9,4.99,000.00,022.1,021.2,000.0,030.7,023.9,013.6,0000.0,0002.02,0003.91,0001.56
2024-04-04 12:01:00,SystemResetWarning,0826.9,5.00,000.00,022.0,021.2,000.0,030.7,023.9,013.7,0000.0,0002.02,0004.87,0001.56
2024-04-04 12:02:00,SystemResetWarning,0826.9,5.00,000.00,022.0,021.2,000.0,030.7,023.9,013.6,0000.0,0002.05,0005.15,0001.57
2024-04-04 12:03:00,SystemResetWarning,0827.0,5.01,000.00,022.0,021.2,000.0,030.7,023.9,013.5,0000.0,0002.05,0005.45,0001.58
2024-04-04 12:04:00,SystemResetWarning,0826.9,5.00,000.00,022.0,021.2,000.0,030.7,023.9,013.5,0000.0,0002.03,0005.46,0001.58
2024-04-04 12:05:00,SystemResetWarning,0826.9,5.00,000.00,022.0,021.2,000.0,030.6,023.8,013.5,0000.0,0002.01,0005.40,0001.57
2024-04-04 12:06:00,SystemResetWarning,0827.0,4.99,000.00,022.0,021.2,000.0,030.6,023.8,013.5,0000.0,0002.03,0005.38,0001.59
2024-04-04 12:07:00,SystemResetWarning,0826.9,4.99,000.00,022.0,021.2,000.0,030.6,023.8,013.4,0000.0,0002.07,0005.49,0001.59
2024-04-04 12:08:00,SystemResetWarning,0827.0,5.00,000.00,022.0,021.2,000.0,030.6,023.8,013.3,0000.0,0002.03,0005.43,0001.59
2024-04-04 12:09:00,SystemResetWarning,0826.9,5.01,000.00,022.0,021.2,000.0,030.6,023.8,013.3,0000.0,0002.01,0005.36,0001.58
2024-04-04 12:10:00,SystemResetWarning,0827.0,5.00,000.00,022.0,021.2,000.0,030.6,023.8,013.3,0000.0,0002.03,0005.35,0001.59
2024-04-04 12:11:00,SystemResetWarning,0827.0,5.01,000.00,022.0,021.2,000.0,030.6,023.8,013.3,0000.0,0002.01,0004.58,0001.58
2024-04-04 12:12:00,SystemResetWarning,0827.0,5.00,000.00,022.0,021.1,000.0,030.6,023.8,013.4,0000.0,0002.05,0003.64,0001.60
2024-04-04 12:13:00,SystemResetWarning,0827.0,4.99,000.00,022.0,021.1,000.0,030.6,023.8,013.5,0000.0,0002.03,0003.53,0001.60
2024-04-04 12:14:00,SystemResetWarning,0826.9,4.99,000.00,021.9,021.1,000.0,030.6,023.8,013.4,0000.0,0001.99,0004.20,0001.58
2024-04-04 12:15:00,SystemResetWarning,0827.0,5.00,000.00,021.9,021.1,000.0,030.6,023.8,013.4,0000.0,0001.98,0004.09,0001.58
2024-04-04 12:16:00,SystemResetWarning,0827.0,5.00,000.00,021.9,021.1,000.0,030.6,023.8,013.4,0000.0,0001.99,0004.15,0001.56
2024-04-04 12:17:00,SystemResetWarning,0827.0,5.01,000.00,021.9,021.1,000.0,030.5,023.7,013.5,0000.0,0001.98,0004.20,0001.55
2024-04-04 12:18:00,SystemResetWarning,0827.0,5.00,000.00,021.9,021.1,000.0,030.5,023.7,013.5,0000.0,0001.96,0004.12,0001.55
2024-04-04 12:19:00,SystemResetWarning,0827.0,5.00,000.00,021.9,021.1,000.0,030.5,023.7,013.5,0000.0,0002.01,0004.22,0001.56
2024-04-04 12:20:00,SystemResetWarning,0827.0,4.99,000.00,021.9,021.1,000.0,030.5,023.7,013.5,0000.0,0002.00,0004.26,0001.56
2024-04-04 12:21:00,SystemResetWarning,0827.0,5.00,000.00,021.9,021.1,000.0,030.5,023.7,013.6,0000.0,0002.03,0004.34,0001.55
2024-04-04 12:22:00,SystemResetWarning,0827.0,4.99,000.00,021.9,021.1,000.0,030.5,023.7,013.6,0000.0,0002.10,0004.66,0001.55
2024-04-04 12:23:00,SystemResetWarning,0827.0,5.00,000.00,021.9,021.1,000.0,030.5,023.7,013.7,0000.0,0002.07,0005.10,0001.53
2024-04-04 12:24:00,SystemResetWarning,0827.0,5.00,000.00,021.9,021.1,000.0,030.5,023.7,013.7,0000.0,0002.03,0004.74,0001.52
2024-04-04 12:25:00,SystemResetWarning,0827.1,5.01,000.00,021.9,021.1,000.0,030.5,023.7,013.8,0000.0,0002.04,0003.77,0001.51
2024-04-04 12:26:00,SystemResetWarning,0827.1,5.00,000.00,021.9,021.0,000.0,030.5,023.7,013.7,0000.0,0002.04,0003.76,0001.51
2024-04-04 12:27:00,SystemResetWarning,0827.1,4.99,000.00,021.8,021.0,000.0,030.5,023.7,013.7,0000.0,0002.03,0003.81,0001.52
2024-04-04 12:28:00,SystemResetWarning,0827.1,4.99,000.00,021.8,021.0,000.0,030.5,023.7,013.6,0000.0,0002.03,0005.03,0001.53
2024-04-04 12:29:00,SystemResetWarning,0827.1,5.00,000.00,021.8,021.0,000.0,030.5,023.6,013.6,0000.0,0002.02,0005.03,0001.52
2024-04-04 12:30:00,SystemResetWarning,0827.1,5.01,000.00,021.8,021.0,000.0,030.4,023.6,013.6,0000.0,0002.01,0005.03,0001.53
2024-04-04 12:31:00,SystemResetWarning,0827.1,5.01,000.00,021.8,021.0,000.0,030.4,023.6,013.6,0000.0,0002.00,0004.99,0001.55
2024-04-04 12:32:00,SystemResetWarning,0827.1,4.99,000.00,021.8,021.0,000.0,030.4,023.6,013.5,0000.0,0002.00,0005.07,0001.55
2024-04-04 12:33:00,SystemResetWarning,0827.1,4.99,000.00,021.8,021.0,000.0,030.4,023.6,013.6,0000.0,0001.97,0006.62,0001.55
2024-04-04 12:34:00,SystemResetWarning,0827.1,5.00,000.00,021.8,021.0,000.0,030.4,023.6,013.6,0000.0,0001.96,0006.19,0001.56
2024-04-04 12:35:00,SystemResetWarning,0827.0,5.00,000.00,021.8,021.0,000.0,030.4,023.6,013.6,0000.0,0001.98,0006.22,0001.57
2024-04-04 12:36:00,SystemResetWarning,0827.0,5.01,000.00,021.8,021.0,000.0,030.4,023.6,013.6,0000.0,0002.00,0006.29,0001.57
2024-04-04 12:37:00,SystemResetWarning,0827.0,5.01,000.00,021.8,021.0,000.0,030.4,023.6,013.6,0000.0,0001.99,0006.26,0001.55
2024-04-04 12:38:00,SystemResetWarning,0827.1,4.99,000.00,021.8,021.0,000.0,030.4,023.6,013.7,0000.0,0002.00,0006.24,0001.55
2024-04-04 12:39:00,SystemResetWarning,0827.1,4.99,000.00,021.7,021.0,000.0,030.4,023.6,014.0,0000.0,0002.00,0005.03,0001.55
2024-04-04 12:40:00,SystemResetWarning,0827.1,4.99,000.00,021.7,021.0,000.0,030.4,023.6,014.1,0000.0,0002.00,0004.88,0001.54
2024-04-04 12:41:00,SystemResetWarning,0827.0,5.00,000.00,021.7,020.9,000.0,030.4,023.5,013.9,0000.0,0002.00,0004.89,0001.53
2024-04-04 12:42:00,SystemResetWarning,0827.1,5.01,000.00,021.7,020.9,000.0,030.4,023.5,014.0,0000.0,0002.04,0005.77,0001.52
2024-04-04 12:43:00,SystemResetWarning,0827.0,5.01,000.00,021.7,020.9,000.0,030.3,023.5,013.9,0000.0,0002.04,0006.06,0001.52
2024-04-04 12:44:00,SystemResetWarning,0827.0,5.00,000.00,021.7,020.9,000.0,030.3,023.5,013.8,0000.0,0002.06,0004.68,0001.52
2024-04-04 12:45:00,SystemResetWarning,0827.0,5.00,000.00,021.7,020.9,000.0,030.3,023.5,013.8,0000.0,0002.08,0004.48,0001.51
2024-04-04 12:46:00,SystemResetWarning,0827.0,5.01,000.00,021.7,020.9,000.0,030.3,023.5,013.7,0000.0,0002.11,0004.59,0001.50
2024-04-04 12:47:00,SystemResetWarning,0827.0,4.99,000.00,021.7,020.9,000.0,030.3,023.5,013.7,0000.0,0002.09,0004.56,0001.50
2024-04-04 12:48:00,SystemResetWarning,0827.0,4.99,000.00,021.7,020.9,000.0,030.3,023.5,013.6,0000.0,0002.10,0004.62,0001.51
2024-04-04 12:49:00,SystemResetWarning,0827.0,4.99,000.00,021.7,020.9,000.0,030.3,023.5,013.6,0000.0,0002.12,0004.66,0001.51
2024-04-04 12:50:00,SystemResetWarning,0827.0,5.00,000.00,021.7,020.9,000.0,030.3,023.5,013.7,0000.0,0002.11,0004.67,0001.50
2024-04-04 12:51:00,SystemResetWarning,0827.1,5.01,000.00,021.7,020.9,000.0,030.3,023.5,013.8,0000.0,0002.11,0005.38,0001.50
2024-04-04 12:52:00,SystemResetWarning,0827.0,5.01,000.00,021.7,020.9,000.0,030.3,023.5,013.7,0000.0,0002.12,0005.45,0001.50
2024-04-04 12:53:00,SystemResetWarning,0827.1,5.00,000.00,021.7,020.9,000.0,030.3,023.5,013.7,0000.0,0002.10,0005.00,0001.49
2024-04-04 12:54:00,SystemResetWarning,0827.1,4.99,000.00,021.6,020.8,000.0,030.3,023.4,013.9,0000.0,0002.08,0004.30,0001.49
2024-04-04 12:55:00,SystemResetWarning,0827.1,5.00,000.00,021.6,020.8,000.0,030.2,023.4,014.0,0000.0,0002.06,0004.50,0001.48
2024-04-04 12:56:00,SystemResetWarning,0827.1,5.00,000.00,021.6,020.8,000.0,030.2,023.4,014.2,0000.0,0002.01,0004.32,0001.49
2024-04-04 12:57:00,SystemResetWarning,0827.1,5.00,000.00,021.6,020.8,000.0,030.2,023.4,014.1,0000.0,0001.98,0004.58,0001.48
2024-04-04 12:58:00,SystemResetWarning,0827.1,5.01,000.00,021.6,020.8,000.0,030.2,023.4,014.1,0000.0,0002.00,0004.77,0001.49
2024-04-04 12:59:00,SystemResetWarning,0827.1,5.01,000.00,021.6,020.8,000.0,030.2,023.4,014.0,0000.0,0002.00,0004.73,0001.49
